x

Mid Gulf - 180 Nm South Of Southwest Pass, La (42001) Wave Buoy

1:50am - Wed 26th Jul 2017 All times are UTC.

  • Sig Wave height 1.6ft
  • Swell Direction
  • Peak Period 3s
  • Average Period 3s
  • Wind
    11mph, 16mph gusts
  • Sea Temp 87°f
  • Air Temp 86°f
  • Sea Pressure 1019.4mb

More Historic Weather Station data

Upgrade to MSW Pro to gain access to the past 30 days of data for over 8000 Wavebouys and Weather Stations around the globe.

Join Pro

Comparision Forecast

View Surf forecast
   
Wed 07/26 1:50am 1.6ft 3s 3s 11 16 mph 1019.4mb 87f 86f
1:40am 1.6ft  -  3s 11 16 mph 1019.3mb 87f 86f
1:30am  -   -   -  13 16 mph 1019.1mb 87f 86f
1:20am  -   -   -  13 16 mph 1019mb 87f 86f
1:10am  -   -   -  13 16 mph 1019mb 87f 86f
1:00am  -   -   -  13 18 mph 1018.8mb 87f 86f
12:50am 1.6ft 3s 3s 13 16 mph 1018.6mb 87f 86f
12:40am  -   -   -  13 16 mph 1018.5mb 87f 86f
12:30am  -   -   -  13 18 mph 1018.1mb 87f 86f
12:20am  -   -   -  13 16 mph 1018.1mb 87f 86f
12:10am  -   -   -  13 18 mph 1018.1mb 87f 86f
12:00am  -   -   -  13 16 mph 1018mb 87f 86f
Tue 07/25 11:50pm 1.3ft  -  3s 11 13 mph 1017.9mb - 86f
11:40pm 1.3ft 5s  -   -  mph - 87f -
11:30pm  -   -   -  11 16 mph 1017.9mb 87f 86f
11:20pm  -   -   -  11 13 mph 1018mb 87f 86f
11:10pm  -   -   -  11 13 mph 1018.1mb 87f 86f
11:00pm  -   -   -  11 13 mph 1018.1mb 87f 86f
10:50pm 1.3ft 5s 3s 11 13 mph 1017.9mb 87f 86f
10:40pm 1.3ft  -  3s 11 13 mph 1017.9mb 87f 86f
10:30pm  -   -   -  11 13 mph 1018mb 87f 86f
10:20pm  -   -   -  11 13 mph 1018.1mb 87f 86f
10:10pm  -   -   -  11 13 mph 1018.4mb 87f 86f
10:00pm  -   -   -  11 13 mph 1018.5mb 87f 86f
9:50pm 1.6ft 5s 3s 9 11 mph 1018.6mb 87f 86f
9:40pm 1.6ft  -  3s 11 13 mph 1018.9mb 87f 86f
9:30pm  -   -   -  9 11 mph 1019mb 87f 86f
9:20pm  -   -   -  9 11 mph 1019.3mb 87f 86f
9:10pm  -   -   -  9 11 mph 1019.3mb 87f 86f
9:00pm  -   -   -  11 13 mph 1019mb 87f 86f
8:50pm 1.6ft 4s 3s 9 11 mph 1019.3mb 87f 86f
8:40pm 1.6ft  -  3s 11 13 mph 1019.4mb 87f 86f
8:30pm  -   -   -  9 13 mph 1019.5mb 87f 86f
8:20pm  -   -   -  9 11 mph 1019.5mb 87f 86f
8:10pm  -   -   -  9 13 mph 1019.6mb 87f 86f
8:00pm  -   -   -  11 13 mph 1019.8mb 87f 86f
7:50pm 1.6ft 5s 3s 11 13 mph 1019.8mb 87f 86f
7:40pm  -   -   -  11 13 mph 1019.6mb 87f 86f
7:30pm  -   -   -  11 16 mph 1019.6mb 87f 86f
7:20pm  -   -   -  13 16 mph 1019.8mb 86f 86f
7:10pm  -   -   -  13 16 mph 1020mb 86f 86f
7:00pm  -   -   -  13 16 mph 1020.1mb 87f 86f
6:50pm 1.6ft 4s 4s 11 13 mph 1020.3mb 87f 86f
6:40pm  -   -   -  11 16 mph 1020.4mb 87f 86f
6:30pm  -   -   -  13 16 mph 1020.4mb 87f 86f
6:20pm  -   -   -  13 16 mph 1020.5mb 87f 86f
6:10pm  -   -   -  13 16 mph 1020.5mb 87f 86f
6:00pm  -   -   -  13 16 mph 1020.6mb 87f 86f
5:50pm 1.6ft 4s 4s 11 13 mph 1020.6mb 87f 86f
5:40pm  -   -   -  11 13 mph 1020.6mb 86f 86f
5:30pm  -   -   -  11 13 mph 1020.6mb 86f 86f
5:20pm  -   -   -  9 11 mph 1020.6mb 86f 86f
5:10pm  -   -   -  9 11 mph 1020.6mb 86f 86f
5:00pm  -   -   -  9 11 mph 1020.6mb 86f 86f
4:50pm 1.6ft 5s 4s 11 13 mph 1020.6mb 86f 86f
4:40pm 1.6ft  -  4s 11 13 mph 1020.8mb 86f 86f
4:30pm  -   -   -  9 13 mph 1020.6mb 86f 86f
4:20pm  -   -   -  11 13 mph 1020.5mb 86f 86f
4:10pm  -   -   -  9 13 mph 1020.5mb 86f 86f
4:00pm  -   -   -  9 11 mph 1020.4mb 86f 86f
3:50pm 1.6ft 4s 4s 9 11 mph 1020.1mb 86f 86f
3:40pm  -   -   -  9 11 mph 1020.1mb 86f 86f
3:30pm  -   -   -  9 11 mph 1019.9mb 86f 86f
3:20pm  -   -   -  9 11 mph 1019.8mb 86f 86f
3:10pm  -   -   -  9 11 mph 1019.8mb 86f 86f
3:00pm  -   -   -  9 11 mph 1019.8mb 86f 86f
2:50pm 2ft 4s 4s 9 11 mph 1019.8mb 86f 86f
2:40pm 2ft  -  4s 9 11 mph 1019.8mb 86f 86f
2:30pm  -   -   -  9 11 mph 1019.8mb 86f 86f
2:20pm  -   -   -  9 11 mph 1019.6mb 86f 86f
2:10pm  -   -   -  9 11 mph 1019.6mb 86f 86f
2:00pm  -   -   -  11 11 mph 1019.8mb 86f 86f
1:50pm 2ft 5s 4s 9 11 mph 1019.8mb 86f 86f
1:40pm  -   -   -  11 13 mph 1019.8mb 86f 86f
1:30pm  -   -   -  11 13 mph 1019.8mb 86f 86f
1:20pm  -   -   -  11 13 mph 1019.8mb 86f 86f
1:10pm  -   -   -  11 16 mph 1019.6mb 86f 86f
1:00pm  -   -   -  11 13 mph 1019.5mb 86f 86f
12:50pm 2ft 5s 4s 9 9 mph 1019.5mb 86f 86f
12:40pm  -   -   -  9 9 mph 1019.5mb 86f 86f
12:30pm  -   -   -  9 11 mph 1019.4mb 86f 86f
12:20pm  -   -   -  9 11 mph 1019.4mb 86f 85f
12:10pm  -   -   -  11 13 mph 1019.3mb 86f 85f
12:00pm  -   -   -  11 13 mph 1019mb 86f 85f
11:50am 2ft 5s 4s 11 13 mph 1019mb 86f 85f
11:40am 2ft  -  4s 11 13 mph 1019mb 86f 85f
11:30am  -   -   -  9 11 mph 1019mb 86f 86f
11:20am  -   -   -  11 13 mph 1019mb 86f 86f
11:10am  -   -   -  11 13 mph 1018.8mb 86f 85f
11:00am  -   -   -  11 13 mph 1018.6mb 86f 86f
10:50am 2ft 4s 4s 9 11 mph 1018.4mb 86f 85f
10:40am 2ft  -  4s 9 11 mph 1018.3mb 86f 85f
10:30am  -   -   -  11 13 mph 1018.4mb 86f 86f
10:20am  -   -   -  11 13 mph 1018.1mb 86f 86f
10:10am  -   -   -  11 13 mph 1018.1mb 86f 85f
10:00am  -   -   -  11 13 mph 1018.1mb 86f 85f
9:50am 2ft 5s 3s 13 16 mph 1018mb 86f 85f
9:40am  -   -   -  13 16 mph 1018mb 86f 85f
9:30am  -   -   -  13 16 mph 1017.9mb 86f 85f
9:20am  -   -   -  13 16 mph 1017.8mb 86f 85f
9:10am  -   -   -  13 16 mph 1017.6mb 86f 85f
9:00am  -   -   -  11 16 mph 1017.6mb 86f 85f
8:50am 1.6ft 5s 4s 11 13 mph 1017.8mb 86f 85f
8:40am  -   -   -  11 16 mph 1017.8mb 86f 85f
8:30am  -   -   -  11 13 mph 1017.8mb 86f 85f
8:20am  -   -   -  11 16 mph 1017.8mb 86f 85f
8:10am  -   -   -  13 16 mph 1017.8mb 86f 85f
8:00am  -   -   -  13 16 mph 1017.8mb 86f 85f
7:50am 1.6ft 5s 4s 13 16 mph 1017.6mb 86f 85f
7:40am  -   -   -  13 16 mph 1017.6mb 86f 85f
7:30am  -   -   -  13 16 mph 1017.8mb 86f 85f
7:20am  -   -   -  13 16 mph 1017.9mb 86f 85f
7:10am  -   -   -  13 16 mph 1018mb 86f 86f
7:00am  -   -   -  13 16 mph 1018mb 86f 85f
6:50am 1.6ft 4s 3s 11 16 mph 1018.1mb 86f 85f
6:40am  -   -   -  11 13 mph 1018.1mb 86f 85f
6:30am  -   -   -  11 13 mph 1018.1mb 86f 85f
6:20am  -   -   -  11 13 mph 1018.4mb 86f 86f
6:10am  -   -   -  11 13 mph 1018.4mb 86f 86f
6:00am  -   -   -  11 13 mph 1018.5mb 86f 86f
5:50am 1.6ft 4s 3s 11 13 mph 1018.5mb 86f 86f
5:40am  -   -   -  11 13 mph 1018.6mb 86f 86f
5:30am  -   -   -  11 13 mph 1018.6mb 86f 86f
5:20am  -   -   -  11 13 mph 1018.6mb 86f 86f
5:10am  -   -   -  11 13 mph 1018.5mb 86f 86f
5:00am  -   -   -  11 13 mph 1018.5mb 86f 85f
4:50am 1.3ft 4s 3s 11 13 mph 1018.5mb 86f 85f
4:40am 1.3ft  -  3s 11 13 mph 1018.5mb 86f 85f
4:30am  -   -   -  11 13 mph 1018.4mb 86f 85f
4:20am  -   -   -  11 16 mph 1018.4mb 86f 86f
4:10am  -   -   -  11 16 mph 1018.5mb 86f 86f
4:00am  -   -   -  11 13 mph 1018.1mb 86f 86f
3:50am 1.6ft 4s 4s 11 13 mph 1018mb 87f 86f
3:40am 1.6ft  -  4s 11 13 mph 1018mb 87f 85f
3:30am  -   -   -  11 13 mph 1018mb 87f 85f
3:20am  -   -   -  11 13 mph 1017.9mb 87f 85f
3:10am  -   -   -  11 13 mph 1017.8mb 87f 85f
3:00am  -   -   -  11 13 mph 1017.8mb 87f 85f
2:50am 1.3ft 4s 3s 11 13 mph 1017.6mb 87f 85f
2:40am 1.3ft  -  3s 11 13 mph 1017.6mb 87f 86f
2:30am  -   -   -  11 11 mph 1017.8mb 87f 86f
2:20am  -   -   -  11 13 mph 1017.6mb 87f 86f
2:10am  -   -   -  9 11 mph 1017.6mb 87f 86f
2:00am  -   -   -  9 11 mph 1017.6mb 87f 86f
1:50am 1.3ft 6s 3s 11 13 mph 1017.5mb 87f 86f
1:40am 1.3ft  -  3s 11 13 mph 1017.4mb 87f 86f
1:30am  -   -   -  11 13 mph 1017.4mb 87f 86f
1:20am  -   -   -  11 13 mph 1017.3mb 87f 86f
1:10am  -   -   -  11 13 mph 1017.1mb 87f 86f
1:00am  -   -   -  11 13 mph 1017.1mb 87f 86f
12:50am 1ft 4s 3s 11 11 mph 1017.1mb 87f 86f
12:40am  -   -   -  11 13 mph 1017mb 87f 86f
12:30am  -   -   -  9 11 mph 1017mb 87f 86f
12:20am  -   -   -  9 13 mph 1017mb 87f 86f
12:10am  -   -   -  9 11 mph 1016.8mb 87f 86f
12:00am  -   -   -  9 11 mph 1016.8mb 87f 86f
Mon 07/24 11:50pm 1ft 3s 3s 9 13 mph 1016.6mb 87f 86f
11:40pm  -   -   -  9 13 mph 1016.6mb 87f 86f
11:30pm  -   -   -  9 11 mph 1016.5mb 87f 86f
11:20pm  -   -   -  9 11 mph 1016.5mb 87f 86f
11:10pm  -   -   -  9 11 mph 1016.5mb 87f 86f
11:00pm  -   -   -  9 11 mph 1016.6mb 87f 86f
10:50pm 1ft 4s 3s 9 11 mph 1016.5mb 87f 86f
10:40pm  -   -   -  9 11 mph 1016.6mb 87f 86f
10:30pm  -   -   -  9 11 mph 1016.6mb 87f 86f
10:20pm  -   -   -  9 11 mph 1016.8mb 87f 86f
10:10pm  -   -   -  9 11 mph 1016.9mb 87f 86f
10:00pm  -   -   -  9 13 mph 1017mb 87f 86f
9:50pm 1ft 5s 3s 9 11 mph 1017mb 87f 86f
9:40pm  -   -   -  11 13 mph 1017mb 87f 86f
9:30pm  -   -   -  9 13 mph 1017mb 87f 86f
9:20pm  -   -   -  11 13 mph 1016.9mb 87f 86f
9:10pm  -   -   -  11 13 mph 1016.8mb 87f 86f
9:00pm  -   -   -  11 13 mph 1017mb 87f 86f
8:50pm 1ft 6s 4s 9 13 mph 1017mb 87f 86f
8:40pm  -   -   -  9 13 mph 1017.1mb 87f 85f
8:30pm  -   -   -  9 13 mph 1017.1mb 87f 85f
8:20pm  -   -   -  9 11 mph 1017.1mb 87f 85f
8:10pm  -   -   -  9 11 mph 1017.1mb 87f 85f
8:00pm  -   -   -  9 11 mph 1017.4mb 87f 85f
7:50pm 1ft 6s 4s 9 11 mph 1017.1mb 87f 85f
7:40pm  -   -   -  9 13 mph 1017mb 87f 85f
7:30pm  -   -   -  9 11 mph 1017mb 87f 85f
7:20pm  -   -   -  9 11 mph 1017mb 87f 85f
7:10pm  -   -   -  9 11 mph 1017mb 87f 85f
7:00pm  -   -   -  9 13 mph 1017mb 87f 85f
6:50pm 1ft 5s 4s 7 11 mph 1017mb 87f 85f
6:40pm  -   -   -  9 11 mph 1017mb 87f 85f
6:30pm  -   -   -  7 11 mph 1017mb 87f 85f
6:20pm  -   -   -  7 9 mph 1017.3mb 87f 85f
6:10pm  -   -   -  7 9 mph 1017.4mb 87f 85f
6:00pm  -   -   -  7 9 mph 1017.4mb - 85f
5:50pm 1ft 5s 4s 7 9 mph 1017.5mb 87f 85f
5:40pm  -   -   -  4 7 mph 1017.5mb 87f 85f
5:30pm  -   -   -  7 9 mph 1017.5mb 87f 85f
5:20pm  -   -   -  7 9 mph 1017.4mb 87f 85f
5:10pm  -   -   -  9 9 mph 1017.4mb 87f 85f
5:00pm  -   -   -  7 9 mph 1017.5mb 87f 85f
4:50pm 1.3ft 6s 4s 7 9 mph 1017.6mb 87f 85f
4:40pm  -   -   -  7 9 mph 1017.6mb 87f 85f
4:30pm  -   -   -  7 9 mph 1017.6mb 87f 85f
4:20pm  -   -   -  7 9 mph 1017.8mb 87f 85f
4:10pm  -   -   -  7 9 mph 1017.6mb 87f 85f
4:00pm  -   -   -  7 9 mph 1017.9mb 87f 85f
3:50pm 1.3ft 5s 4s 7 9 mph 1017.9mb 86f 85f
3:40pm  -   -   -  7 9 mph 1017.9mb 86f 85f
3:30pm  -   -   -  7 9 mph 1017.9mb 86f 85f
3:20pm  -   -   -  7 9 mph 1017.6mb 86f 85f
3:10pm  -   -   -  7 9 mph 1017.6mb 86f 85f
3:00pm  -   -   -  7 9 mph 1017.6mb 86f 85f
2:50pm 1.3ft 5s 4s 7 9 mph 1017.6mb 86f 85f
2:40pm  -   -   -  4 7 mph 1017.6mb 86f 85f
2:30pm  -   -   -  7 9 mph 1017.6mb 86f 85f
2:20pm  -   -   -  7 7 mph 1017.6mb 86f 85f
2:10pm  -   -   -  4 7 mph 1017.6mb 86f 85f
2:00pm  -   -   -  4 7 mph 1017.6mb 86f 85f
1:50pm 1.3ft 5s 4s 2 4 mph 1017.6mb 86f 85f
1:40pm 1.3ft  -  4s 4 4 mph 1017.5mb - 85f
1:30pm  -   -   -  4 7 mph 1017.6mb 86f 85f
1:20pm  -   -   -  4 7 mph 1017.6mb 86f 85f
1:10pm  -   -   -  4 7 mph 1017.6mb 86f 85f
1:00pm  -   -   -  4 7 mph 1017.8mb 86f 85f
12:50pm 1ft 6s 4s 4 7 mph 1017.6mb 86f 85f
12:40pm 1ft  -  4s 4 7 mph 1017.6mb 86f 85f
12:30pm  -   -   -  7 9 mph 1017.6mb 86f 85f
12:20pm  -   -   -  4 7 mph 1017.6mb 86f 85f
12:10pm  -   -   -  7 9 mph 1017.4mb 86f 85f
12:00pm  -   -   -  7 9 mph 1017.1mb 86f 85f
11:50am 1ft 6s 4s 7 7 mph 1017.1mb 86f 85f
11:40am 1ft  -  4s 7 9 mph 1017mb 86f 85f
11:30am  -   -   -  7 9 mph 1016.9mb 86f 85f
11:20am  -   -   -  7 9 mph 1016.8mb 86f 85f
11:10am  -   -   -  7 9 mph 1016.5mb 86f 85f
11:00am  -   -   -  4 7 mph 1016.5mb 86f 85f
10:50am 0.7ft  -  3s 4 7 mph 1016.5mb 86f 85f
10:40am  -   -   -  4 4 mph 1016.3mb 86f 85f
10:30am  -   -   -  4 4 mph 1016.3mb 86f 85f
10:20am  -   -   -  4 7 mph 1016.3mb 86f 85f
10:10am  -   -   -  2 4 mph 1016mb 86f 85f
10:00am  -   -   -  2 7 mph 1017mb 86f 85f
9:50am 0.7ft  -  3s 4 7 mph 1015.9mb 86f 85f
9:40am 0.7ft  -  3s 4 7 mph 1015.8mb 86f 85f
9:30am  -   -   -  4 7 mph 1015.8mb 86f 85f
9:20am  -   -   -  2 4 mph 1015.8mb 86f 85f
9:10am  -   -   -  4 7 mph 1015.9mb 86f 85f
9:00am  -   -   -  4 7 mph 1015.8mb 86f 85f
8:50am 0.7ft  -  3s 7 7 mph 1015.9mb 86f 85f
8:40am 0.7ft  -  3s 7 7 mph 1016mb 86f 85f
8:30am  -   -   -  4 7 mph 1016mb 86f 85f
8:20am  -   -   -  4 7 mph 1016mb 86f 85f
8:10am  -   -   -  7 7 mph 1016mb 86f 85f
8:00am  -   -   -  7 9 mph 1016mb 86f 85f
7:50am 0.7ft  -  3s 7 9 mph 1016mb 86f 85f
7:40am 0.7ft  -  3s 7 9 mph 1016mb 86f 85f
7:30am  -   -   -  7 11 mph 1016mb 86f 85f
7:20am  -   -   -  4 4 mph 1016mb 86f 85f
7:10am  -   -   -  4 7 mph 1016mb 86f 85f
7:00am  -   -   -  7 7 mph 1016mb 86f 85f
6:50am 0.7ft  -  3s 7 9 mph 1015.9mb 86f 85f
6:40am  -   -   -  7 9 mph 1015.9mb 86f 85f
6:30am  -   -   -  7 11 mph 1015.8mb 86f 85f
6:20am  -   -   -  9 11 mph 1015.8mb 86f 85f
6:10am  -   -   -  9 9 mph 1015.8mb 87f 85f
6:00am  -   -   -  7 9 mph 1015.8mb 87f 85f
5:50am 0.7ft  -  3s 7 9 mph 1015.8mb 86f 85f
5:40am  -   -   -  7 9 mph 1015.6mb 87f 85f
5:30am  -   -   -  7 9 mph 1015.8mb 87f 85f
5:20am  -   -   -  9 11 mph 1015.8mb 87f 85f
5:10am  -   -   -  9 9 mph 1015.9mb 87f 85f
5:00am  -   -   -  9 11 mph 1016mb 87f 85f
4:50am 0.7ft  -  4s 9 11 mph 1015.9mb 87f 85f
4:40am  -   -   -  9 11 mph 1015.9mb 87f 85f
4:30am  -   -   -  9 11 mph 1016mb - 85f
4:20am  -   -   -  9 11 mph 1016mb 87f 85f
4:10am  -   -   -  9 11 mph 1016.1mb 87f 85f
4:00am  -   -   -  7 9 mph 1016.3mb 87f 85f
3:50am 0.7ft  -  4s 9 11 mph 1016.3mb 87f 85f
3:40am  -   -   -  7 9 mph 1016mb 87f 85f
3:30am  -   -   -  7 9 mph 1016mb 87f 85f
3:20am  -   -   -  7 9 mph 1016mb 87f 85f
3:10am  -   -   -  7 7 mph 1015.8mb 87f 85f
3:00am  -   -   -  7 9 mph 1015.8mb 87f 85f
2:50am 0.7ft  -  4s 7 7 mph 1015.8mb 87f 85f
2:40am  -   -   -  4 7 mph 1015.8mb 87f 85f
2:30am  -   -   -  4 7 mph 1015.8mb 87f 85f
2:20am  -   -   -  4 7 mph 1015.8mb 87f 85f
2:10am  -   -   -  4 7 mph 1015.8mb 87f 85f
2:00am  -   -   -  4 7 mph 1015.6mb 87f 85f
1:50am 0.7ft  -  4s 4 7 mph 1015.5mb 87f 85f
1:40am  -   -   -  4 4 mph 1015.6mb 87f 85f
1:30am  -   -   -  4 4 mph 1015.5mb 87f 85f
1:20am  -   -   -  4 7 mph 1015.5mb 87f 85f
1:10am  -   -   -  4 4 mph 1015.5mb 87f 85f
1:00am  -   -   -  4 7 mph 1015.3mb 87f 85f
12:50am 0.7ft  -  4s 4 4 mph 1016.2mb 87f 85f
12:40am 0.7ft  -  4s 2 4 mph 1015.1mb 87f 86f
12:30am  -   -   -  2 4 mph 1015.1mb 88f 86f
12:20am  -   -   -  2 7 mph 1015.1mb 88f 86f
12:10am  -   -   -  4 4 mph 1015.1mb 88f 86f
12:00am  -   -   -  2 4 mph 1015.1mb 88f 86f
Sun 07/23 11:50pm 0.7ft  -  4s 2 4 mph 1015.3mb 88f 86f
11:40pm 0.7ft  -  4s 2 4 mph 1015.5mb 88f 86f
11:30pm  -   -   -  2 4 mph 1015.4mb 88f 86f
11:20pm  -   -   -  2 4 mph 1015.5mb 88f 87f
11:10pm  -   -   -   -  2 mph 1015.5mb 88f 87f
11:00pm  -   -   -   -  2 mph 1015.5mb 88f 87f
10:50pm 1ft 4s 4s  -  2 mph 1015.5mb 88f 87f
10:40pm 1ft  -  4s  -  2 mph 1015.5mb 88f 87f
10:30pm  -   -   -  2 4 mph 1015.5mb 87f 87f
10:20pm  -   -   -  2 2 mph 1015.5mb 87f 87f
10:10pm  -   -   -  2 4 mph 1015.5mb 87f 86f
10:00pm  -   -   -  2 4 mph 1015.5mb 87f 86f
9:50pm 1ft 3s 4s 2 4 mph 1015.6mb 87f 86f
9:40pm  -   -   -  2 4 mph 1015.6mb 87f 86f
9:30pm  -   -   -  2 4 mph 1015.8mb 87f 87f
9:20pm  -   -   -   -  2 mph 1015.8mb 87f 87f
9:10pm  -   -   -  2 4 mph 1015.8mb 87f 86f
9:00pm  -   -   -  4 7 mph 1015.9mb 87f 86f
8:50pm 1ft 4s 4s 4 7 mph 1015.9mb 87f 86f
8:40pm  -   -   -  4 4 mph 1016mb 87f 86f
8:30pm  -   -   -  2 4 mph 1016mb 87f 86f
8:20pm  -   -   -  4 7 mph 1016mb 87f 86f
8:10pm  -   -   -  4 7 mph 1016.1mb 87f 86f
8:00pm  -   -   -  4 7 mph 1016.3mb 87f 86f
7:50pm 1ft 4s 4s 4 7 mph 1016.3mb 87f 86f
7:40pm  -   -   -  4 7 mph 1016.4mb 86f 86f
7:30pm  -   -   -  4 7 mph 1016.4mb 87f 86f
7:20pm  -   -   -  4 7 mph 1016.4mb 87f 86f
7:10pm  -   -   -  7 9 mph 1016.4mb 87f 86f
7:00pm  -   -   -  7 9 mph 1016.5mb 87f 86f
6:50pm 1ft 4s 4s 7 7 mph 1016.5mb 87f 86f
6:40pm 1ft  -  4s 7 9 mph 1016.6mb 87f 86f
6:30pm  -   -   -  7 9 mph 1016.6mb 87f 86f
6:20pm  -   -   -  7 7 mph 1016.8mb 87f 86f
6:10pm  -   -   -  4 7 mph 1016.8mb 87f 86f
6:00pm  -   -   -  7 7 mph 1016.8mb 87f 86f
5:50pm 1ft 5s 4s 4 7 mph 1017mb 87f 86f
5:40pm  -   -   -  7 9 mph 1017mb 87f 86f
5:30pm  -   -   -  7 9 mph 1016.9mb 87f 86f
5:20pm  -   -   -  7 7 mph 1016.9mb 87f 86f
5:10pm  -   -   -  4 7 mph 1017mb 87f 86f
5:00pm  -   -   -  7 7 mph 1017.8mb 86f 86f
4:50pm 1ft 4s 4s 4 7 mph 1017mb 87f 86f
4:40pm 1ft  -  4s 4 7 mph 1017mb 86f 86f
4:30pm  -   -   -  4 7 mph 1017.1mb 86f 85f
4:20pm  -   -   -  4 7 mph 1017.1mb 86f 85f
4:10pm  -   -   -  4 7 mph 1017mb 86f 85f
4:00pm  -   -   -  4 7 mph 1017mb 86f 85f
3:50pm 1ft 4s 4s 7 9 mph 1017mb 86f 85f
3:40pm 1ft  -  4s 4 7 mph 1017mb 86f 86f
3:30pm  -   -   -  4 7 mph 1017mb 86f 86f
3:20pm  -   -   -  4 7 mph 1017mb 86f 85f
3:10pm  -   -   -  4 4 mph 1016.8mb 86f 85f
3:00pm  -   -   -  2 4 mph 1016.9mb 86f 85f
2:50pm 1ft 4s 4s 4 4 mph 1016.8mb 86f 85f
2:40pm 1ft  -  4s 2 4 mph 1016.8mb 86f 85f
2:30pm  -   -   -  2 4 mph 1016.8mb 86f 85f
2:20pm  -   -   -  2 2 mph 1016.9mb 86f 85f
2:10pm  -   -   -  2 4 mph 1016.8mb 86f 85f
2:00pm  -   -   -  4 4 mph 1016.5mb 86f 85f
1:50pm 1ft 5s 4s 4 4 mph 1016.5mb 86f 85f
1:40pm 1ft  -  4s 4 4 mph 1016.3mb 86f 85f
1:30pm  -   -   -  4 7 mph 1016.5mb 86f 85f
1:20pm  -   -   -  4 7 mph 1016.3mb 86f 85f
1:10pm  -   -   -  4 7 mph 1016mb 86f 85f
1:00pm  -   -   -  7 7 mph 1016mb 86f 85f
12:50pm 1ft 4s 3s 7 9 mph 1015.9mb 86f 85f
12:40pm 1ft  -  3s 4 7 mph 1015.9mb 86f 85f
12:30pm  -   -   -  7 7 mph 1015.9mb 86f 85f
12:20pm  -   -   -  7 9 mph 1015.9mb 86f 85f
12:10pm  -   -   -  7 7 mph 1015.8mb 86f 85f
12:00pm  -   -   -  7 9 mph 1015.6mb 86f 85f
11:50am 1ft 3s 3s 7 7 mph 1015.5mb 86f 85f
11:40am  -   -   -  7 9 mph 1015.5mb 86f 85f
11:30am  -   -   -  7 9 mph 1015.5mb 86f 85f
11:20am  -   -   -  7 9 mph 1015.5mb 86f 85f
11:10am  -   -   -  7 9 mph 1015.5mb 86f 85f
11:00am  -   -   -  9 9 mph 1015.5mb 86f 85f
10:50am 1ft 3s 3s 7 9 mph 1015.5mb 86f 85f
10:40am  -   -   -  9 11 mph 1015.4mb 86f 85f
10:30am  -   -   -  7 9 mph 1015.3mb 86f 85f
10:20am  -   -   -  7 9 mph 1015.4mb 86f 85f
10:10am  -   -   -  9 11 mph 1015.3mb 86f 85f
10:00am  -   -   -  9 11 mph 1015.1mb 86f 85f
9:50am 1ft 3s 3s 9 11 mph 1015.3mb 86f 85f
9:40am  -   -   -  9 13 mph 1015.3mb 86f 85f
9:30am  -   -   -  9 11 mph 1015.1mb 86f 85f
9:20am  -   -   -  9 11 mph 1015.1mb 86f 85f
9:10am  -   -   -  9 11 mph 1015mb 86f 85f
9:00am  -   -   -  9 9 mph 1015.3mb 86f 85f
8:50am 1ft 4s 3s 7 9 mph 1015.3mb 86f 85f
8:40am 1ft  -  3s 7 9 mph 1015.4mb 86f 85f
8:30am  -   -   -  7 9 mph 1015.4mb 86f 85f
8:20am  -   -   -  7 9 mph 1015.5mb 86f 85f
8:10am  -   -   -  7 9 mph 1015.5mb 86f 85f
8:00am  -   -   -  7 9 mph 1015.5mb 86f 85f
7:50am 1ft 3s 3s 7 9 mph 1015.8mb 86f 85f
7:40am 1ft  -  3s 7 9 mph 1015.8mb 86f 84f
7:30am  -   -   -  7 7 mph 1015.8mb 86f 84f
7:20am  -   -   -  7 7 mph 1015.8mb 86f 84f
7:10am  -   -   -  7 7 mph 1016mb 86f 84f
7:00am  -   -   -  7 9 mph 1016mb 86f 84f
6:50am 1ft 3s 3s 7 9 mph 1016.3mb 86f 84f
6:40am  -   -   -  7 9 mph 1016.3mb 86f 84f
6:30am  -   -   -  7 9 mph 1016.3mb 86f 84f
6:20am  -   -   -  9 11 mph 1016.3mb 86f 84f
6:10am  -   -   -  11 13 mph 1016.3mb 86f 85f
6:00am  -   -   -  11 13 mph 1016.1mb 86f 85f
5:50am 1ft 4s 3s 11 13 mph 1016.3mb 86f 85f
5:40am  -   -   -  13 16 mph 1016.1mb 86f 85f
5:30am  -   -   -  11 16 mph 1016mb 86f 85f
5:20am  -   -   -  11 13 mph 1016mb 86f 85f
5:10am  -   -   -  11 16 mph 1016.1mb 86f 85f
5:00am  -   -   -  11 13 mph 1016.1mb 86f 85f
4:50am 1ft 3s 4s 11 16 mph 1016.1mb 86f 85f
4:40am  -   -   -  9 13 mph 1016.3mb 86f 85f
4:30am  -   -   -  9 13 mph 1016.3mb 86f 85f
4:20am  -   -   -  9 11 mph 1016.3mb 86f 85f
4:10am  -   -   -  9 11 mph 1016.5mb 86f 85f
4:00am  -   -   -  9 9 mph 1016.5mb 86f 85f
3:50am 0.7ft  -  4s 9 11 mph 1016.5mb 86f 85f
3:40am 0.7ft  -  4s 9 11 mph 1016.5mb 86f 85f
3:30am  -   -   -  7 9 mph 1016.6mb 86f 84f
3:20am  -   -   -  9 9 mph 1016.6mb 86f 84f
3:10am  -   -   -  9 11 mph 1016.6mb 86f 84f
3:00am  -   -   -  9 11 mph 1016.6mb 86f 84f
2:50am 0.7ft  -  4s 9 9 mph 1016.8mb 86f 84f
2:40am 0.7ft  -  4s 9 11 mph 1017mb 86f 84f
2:30am  -   -   -  9 9 mph 1016.9mb 86f 84f
2:20am  -   -   -  9 9 mph 1016.9mb 86f 84f
2:10am  -   -   -  9 11 mph 1016.8mb 86f 84f
2:00am  -   -   -  9 11 mph 1017mb 86f 84f
1:50am 0.7ft  -  4s 9 11 mph 1017mb 86f 84f
1:40am 0.7ft  -  4s 9 11 mph 1016.8mb 86f 84f
1:30am  -   -   -  9 11 mph 1016.8mb 86f 84f
1:20am  -   -   -  9 11 mph 1016.6mb 86f 84f
1:10am  -   -   -  9 11 mph 1016.4mb 86f 84f
1:00am  -   -   -  9 11 mph 1016.3mb 87f 84f
12:50am 0.7ft  -  4s 9 11 mph 1016.1mb 87f 84f
12:40am 0.7ft  -  4s 9 11 mph 1016.3mb 87f 84f
12:30am  -   -   -  9 11 mph 1016.3mb 87f 84f
12:20am  -   -   -  9 9 mph 1016.3mb 87f 85f
12:10am  -   -   -  9 11 mph 1016.3mb 87f 85f
12:00am  -   -   -  9 9 mph 1016.3mb 87f 85f
Sat 07/22 11:50pm 1ft 3s 3s 9 9 mph 1016.4mb 87f 85f
11:40pm  -   -   -  7 9 mph 1016.4mb 87f 84f
11:30pm  -   -   -  7 9 mph 1016.3mb 87f 83f
11:20pm  -   -   -  7 9 mph 1016mb 87f 83f
11:10pm  -   -   -  7 9 mph 1016.3mb 87f 83f
11:00pm  -   -   -  7 9 mph 1016.1mb 87f 83f
10:50pm 1ft 2s 3s 4 7 mph 1016.1mb 87f 82f
10:40pm 1ft  -  3s 4 7 mph 1016mb 87f 82f
10:30pm  -   -   -  4 7 mph 1016mb 87f 81f
10:20pm  -   -   -  9 13 mph 1016.3mb 87f 81f
10:10pm  -   -   -  13 16 mph 1016.1mb 87f 82f
10:00pm  -   -   -  13 18 mph 1016mb 87f 83f
9:50pm 1ft 3s 3s 13 22 mph 1016mb 87f 82f
9:40pm 1ft  -  3s 4 16 mph 1016.3mb 87f 86f
9:30pm  -   -   -  2 2 mph 1016.1mb 87f 87f
9:20pm  -   -   -  2 4 mph 1016mb 87f 87f
9:10pm  -   -   -  2 4 mph 1016mb 87f 87f
9:00pm  -   -   -  4 7 mph 1016mb 87f 86f
8:50pm 0.7ft  -  3s 4 7 mph 1016mb 87f 86f
8:40pm 0.7ft  -  3s 7 9 mph 1016mb 87f 86f
8:30pm  -   -   -  4 7 mph 1016mb 87f 86f
8:20pm  -   -   -  7 9 mph 1016mb 87f 86f
8:10pm  -   -   -  7 7 mph 1016mb 87f 86f
8:00pm  -   -   -  7 9 mph 1016.1mb 87f 86f
7:50pm 1ft 3s 3s 7 7 mph 1016.1mb 87f 86f
7:40pm 1ft  -  3s 7 9 mph 1016.3mb 87f 86f
7:30pm  -   -   -  7 9 mph 1016.5mb 87f 86f
7:20pm  -   -   -  4 7 mph 1016.8mb 87f 86f
7:10pm  -   -   -  4 7 mph 1016.8mb 87f 86f
7:00pm  -   -   -  4 7 mph 1017mb 87f 86f
6:50pm 1ft 3s 3s 4 7 mph 1017.1mb 87f 86f
6:40pm 1ft  -  3s 4 7 mph 1017.4mb 87f 86f
6:30pm  -   -   -  4 7 mph 1017.4mb 87f 86f
6:20pm  -   -   -  4 7 mph 1017.5mb 87f 86f
6:10pm  -   -   -  4 7 mph 1017.5mb 87f 86f
6:00pm  -   -   -  4 7 mph 1017.5mb - 86f
5:50pm 1ft 3s 3s 4 7 mph 1017.5mb 87f 86f
5:40pm 1ft  -  3s 7 9 mph 1017.6mb 87f 86f
5:30pm  -   -   -  7 9 mph 1017.6mb 87f 86f
5:20pm  -   -   -  7 9 mph 1017.5mb 87f 86f
5:10pm  -   -   -  7 7 mph 1017.6mb 87f 86f
5:00pm  -   -   -  7 9 mph 1017.9mb 86f 86f
4:50pm 1.3ft 3s 3s 7 11 mph 1018mb 86f 86f
4:40pm  -   -   -  7 9 mph 1018mb 86f 85f
4:30pm  -   -   -  7 9 mph 1018.1mb 86f 85f
4:20pm  -   -   -  7 9 mph 1018.1mb 86f 85f
4:10pm  -   -   -  7 11 mph 1018mb 86f 85f
4:00pm  -   -   -  7 9 mph 1018mb 86f 85f
3:50pm 1.3ft 3s 3s 7 9 mph 1018mb 86f 85f
3:40pm  -   -   -  9 11 mph 1017.9mb 86f 85f
3:30pm  -   -   -  7 9 mph 1018mb 86f 85f
3:20pm  -   -   -  9 11 mph 1017.9mb 86f 85f
3:10pm  -   -   -  9 11 mph 1018mb 86f 85f
3:00pm  -   -   -  9 11 mph 1018mb 86f 85f
2:50pm 1.3ft 3s 3s 9 11 mph 1017.9mb 86f 85f
2:40pm  -   -   -  9 11 mph 1017.9mb 86f 85f
2:30pm  -   -   -  9 11 mph 1017.9mb 86f 85f
2:20pm  -   -   -  9 11 mph 1017.9mb 86f 85f
2:10pm  -   -   -  9 11 mph 1017.9mb 86f 85f
2:00pm  -   -   -  11 13 mph 1017.8mb 86f 85f
1:50pm 1ft 3s 3s 9 11 mph 1017.6mb 86f 85f
1:40pm  -   -   -  9 11 mph 1017.4mb 86f 85f
1:30pm  -   -   -  9 11 mph 1017.5mb 86f 85f
1:20pm  -   -   -  9 11 mph 1017.6mb 86f 85f
1:10pm  -   -   -  9 11 mph 1017.5mb 86f 85f
1:00pm  -   -   -  9 13 mph 1017.4mb 86f 85f
12:50pm 1.3ft 3s 3s 11 13 mph 1017.3mb 86f 85f
12:40pm 1.3ft  -  3s 9 11 mph 1017.1mb 86f 85f
12:30pm  -   -   -  11 11 mph 1017mb 86f 85f
12:20pm  -   -   -  9 11 mph 1016.9mb 86f 85f
12:10pm  -   -   -  9 11 mph 1016.8mb 86f 85f
12:00pm  -   -   -  9 11 mph 1016.6mb 86f 85f
11:50am 1ft 3s 3s 9 11 mph 1016.5mb 86f 85f
11:40am  -   -   -  9 11 mph 1016.5mb 86f 85f
11:30am  -   -   -  9 11 mph 1016.3mb 86f 85f
11:20am  -   -   -  9 11 mph 1016.1mb 86f 85f
11:10am  -   -   -  11 13 mph 1016mb 86f 85f
11:00am  -   -   -  9 11 mph 1015.9mb 86f 85f
10:50am 1ft 3s 3s 9 11 mph 1015.8mb 86f 84f
10:40am 1ft  -  3s 9 11 mph 1015.8mb 86f 84f
10:30am  -   -   -  9 11 mph 1015.6mb 86f 84f
10:20am  -   -   -  9 11 mph 1015.5mb 86f 84f
10:10am  -   -   -  9 11 mph 1015.4mb 86f 84f
10:00am  -   -   -  9 11 mph 1015.3mb 86f 84f
9:50am 1ft 3s 3s 9 11 mph 1015.3mb 86f 84f
9:40am 1ft  -  3s 11 13 mph 1015.3mb 86f 84f
9:30am  -   -   -  11 13 mph 1015.1mb 86f 84f
9:20am  -   -   -  11 13 mph 1015.3mb 86f 84f
9:10am  -   -   -  11 13 mph 1015.1mb 86f 84f
9:00am  -   -   -  11 13 mph 1015.4mb 86f 84f
8:50am 1ft 3s 3s 11 13 mph 1015.4mb 86f 84f
8:40am 1ft  -  3s 11 13 mph 1015.3mb 86f 84f
8:30am  -   -   -  11 16 mph 1015.3mb 86f 84f
8:20am  -   -   -  13 16 mph 1015.4mb 86f 84f
8:10am  -   -   -  11 16 mph 1015.4mb 86f 84f
8:00am  -   -   -  9 13 mph 1015.5mb 86f 84f
7:50am 1ft 2s 3s 9 13 mph 1015.5mb 86f 84f
7:40am  -   -   -  9 11 mph 1015.6mb 86f 84f
7:30am  -   -   -  9 11 mph 1015.8mb 86f 84f
7:20am  -   -   -  9 11 mph 1015.8mb 86f 84f
7:10am  -   -   -  11 13 mph 1015.9mb 86f 84f
7:00am  -   -   -  9 13 mph 1015.9mb 86f 84f
6:50am 0.7ft  -  3s 9 11 mph 1016mb 86f 84f
6:40am 0.7ft  -  3s 9 11 mph 1016mb 86f 84f
6:30am  -   -   -  11 11 mph 1016mb 86f 84f
6:20am  -   -   -  9 11 mph 1016.4mb 86f 84f
6:10am  -   -   -  9 13 mph 1016.5mb 86f 84f
6:00am  -   -   -  11 13 mph 1016.5mb 86f 84f
5:50am 0.7ft  -  3s 11 13 mph 1016.6mb 86f 84f
5:40am  -   -   -  9 11 mph 1016.8mb 86f 84f
5:30am  -   -   -  9 11 mph 1016.8mb 86f 84f
5:20am  -   -   -  9 11 mph 1016.8mb 86f 84f
5:10am  -   -   -  9 11 mph 1016.8mb 86f 84f
5:00am  -   -   -  9 11 mph 1016.9mb 86f 84f
4:50am 0.7ft  -  3s 9 11 mph 1017mb 86f 84f
4:40am 0.7ft  -  3s 9 11 mph 1017mb 86f 84f
4:30am  -   -   -  9 11 mph 1017mb 86f 84f
4:20am  -   -   -  9 11 mph 1017mb 86f 84f
4:10am  -   -   -  9 11 mph 1017mb 86f 84f
4:00am  -   -   -  9 11 mph 1017mb 86f 84f
3:50am 0.7ft  -  3s 9 13 mph 1017mb 86f 84f
3:40am  -   -   -  9 13 mph 1017mb 86f 84f
3:30am  -   -   -  9 11 mph 1016.9mb 86f 83f
3:20am  -   -   -  9 11 mph 1016.8mb 86f 82f
3:10am  -   -   -  11 16 mph 1016.8mb 86f 83f
3:00am  -   -   -  11 16 mph 1016.8mb 86f 84f